Location: ??????
(55.7522°N, 37.6156°E)
Time: 16:37:28
(UTC+00:00)

Geosat - Pass Details

Date: 14 June 2025
Orbit: 758 x 761 km, 108.1° (Epoch: 12 July)

Event Time Altitude Azimuth Distance (km) Brightness Sun altitude
Rises 20:19:07 0° 33° (NNE) 3,235 7.9 -9.5°
Reaches altitude 10° 20:21:24 10° 33° (NNE) 2,306 7.1 -9.6°
Maximum altitude 20:26:26 81° 308° (NW) 779 4.1 -9.8°
Drops below altitude 10° 20:31:26 10° 221° (SW) 2,293 6.1 -10.0°
Sets 20:33:42 0° 220° (SW) 3,216 6.9 -10.0°
